Regional Weather Roundup
Issued by NWS

Home | Current Version | Previous Version | Graphics & Text | Print | Product List | Glossary On
Versions: 1 2 3 4 5 6 7 8 9 10 11 12 13 14 15 16 17 18 19 20 21 22 23 24 25 26 27 28 29 30 31 32 33 34 35 36 37 38 39 40 41 42 43 44 45 46 47 48 49 50
000
ASUS43 KFSD 300002
RWRSD

WEATHER ROUNDUP FOR SOUTH DAKOTA
NATIONAL WEATHER SERVICE SIOUX FALLS SD
700 PM CDT FRI APR 29 2016

NOTE: "FAIR" INDICATES FEW OR NO CLOUDS BELOW 12,000 FEET WITH NO
SIGNIFICANT WEATHER AND/OR OBSTRUCTIONS TO VISIBILITY.


SDZ001>005-009-010-012>017-300100-
NORTHWEST AND NORTH CENTRAL SOUTH DAKOTA

CITY           SKY/WX    TMP DP  RH WIND       PRES   REMARKS
BUFFALO          N/A     51  32  48 E9        29.99S
FAITH            N/A     49  35  58 SE15      30.05S
MOBRIDGE       CLOUDY    58  38  47 SE10      30.04F
$$

SDZ012>016-024>037-041>051-057-063-072>074-300100-
SOUTHWEST AND SOUTH CENTRAL SOUTH DAKOTA

CITY           SKY/WX    TMP DP  RH WIND       PRES   REMARKS
RAPID CTY ARPT CLOUDY    45  35  68 NE9       30.03F
PIERRE         CLOUDY    50  39  66 E8        30.04F
CUSTER         FOG       32  30  92 NE13G21   29.97S VSB 1/2 WCI  22
ELLSWORTH AFB  CLOUDY    45  36  70 E8        30.02F
PHILIP         CLOUDY    47  38  71 E14       30.04S
PINE RIDGE     CLOUDY    41  34  76 NE15      29.98F
WINNER         CLOUDY    45  38  76 E14       30.02S
$$

SDZ004>011-016>023-039-040-300100-
NORTHEAST SOUTH DAKOTA

CITY           SKY/WX    TMP DP  RH WIND       PRES   REMARKS
ABERDEEN       CLOUDY    56  39  53 SE10      30.09S
WATERTOWN      CLOUDY    51  38  60 E9        30.08F
BROOKINGS      CLOUDY    49  39  68 E6        30.07F
SISSETON         N/A     57  37  47 S9        30.10S
$$

SDZ017-020-022-023-036>040-048>070-300100-
SOUTHEAST SOUTH DAKOTA

CITY           SKY/WX    TMP DP  RH WIND       PRES   REMARKS
SIOUX FALLS    CLOUDY    50  38  63 E12       30.04F
HURON          CLOUDY    50  38  63 E9        30.07F
MITCHELL       CLOUDY    50  39  66 E12       30.05F
YANKTON        CLOUDY    46  39  76 E13       30.02F
$$

ABBREVIATIONS USED IN REMARKS
   TC - TEMPERATURE IN CELSIUS
  WCI - WIND CHILL INDEX
   HX - HEAT INDEX
  VSB - VISIBILITY





USA.gov is the U.S. government's official web portal to all federal, state and local government web resources and services.